星链-32161 (STARLINK-32161)

导读

STARLINK-32161是美国太空探索技术公司(SpaceX)星链(Starlink)星座的低轨互联网卫星,于2024年8月20日由美国发射升空,属于星链星座扩容卫星。 该卫星运行在近地轨道,依托星链星座的相控阵天线、激光星间链路等技术,为全球偏远地区、网络基础设施薄弱区域提供高速低延迟的宽带互联网服务,是SpaceX推进全球卫星互联网覆盖的重要组成部分。

基本信息
目录编号:
60593
目录名称:
STARLINK-32161
国际标识:
2024-150L
轨道中心:
EARTH
卫星名称:
星链-32161 (STARLINK-32161)
卫星全名:
星链-32161 (STARLINK-32161)
卫星状态:
在轨 (已飞行745 天)
发射日期:
2024-08-20 UTC
国别 :
美国 (US)
星等 :
--
轨道信息
数据来源 国际轨道数据 AOE轨道数据
星历时间 2026-09-03T22:13:27+0800
16小时前
查看轨道信息
2026-08-30T22:00:00+0800
4天前
查看轨道信息
半长轴 6840.876km 6840.852km
偏心率 0.0001849 0.0001224
轨道倾角 53.160° 53.156°
近地点辐角 73.438° 99.467°
升交点赤经 196.820° 215.555°
平近点角 286.683° 61.490°
近地点 461.474km 461.877km
远地点 464.004km 463.553km
周期 93.848分钟 93.848分钟
每日圈数 15.343883 15.343963
详细信息
卫星平台:
Starlink v2.0 mini
运营商:
太空探索技术公司
运营商所在国:
美国
制造商(研发单位):
太空探索技术公司
制造商所在国:
美国
使用方式:
暂无
卫星简介
星链(Starlink)计划是由太空探索技术公司(SpaceX)提出的一个巨型低轨卫星互联网星座项目,计划在2019年至2024年间在太空搭建由约1.2万颗卫星组成的“星链”网络,其中1584颗将部署在地球上空550千米处的近地轨道,并从2020年开始工作。该卫星仍在工作。
2D轨道图
3D轨道图
轨道高度分析图
轨道倾角分析图
轨道综合分析图
查看轨道综合分析图
交会数据列表
事件ID 空间交会对象 最接近时刻(TCA) 交会距离 交会风险概率(CRP) 交会风险指数(CRI) 操作
CDM_260904-083305-387106-059321
2026-09-04T
08:33:25+0000
0.475 km
远距离
8.401618E-5 中风险 0.73
CDM_260905-120306-059306-509321
2026-09-05T
12:03:10+0000
0.938 km
远距离
2.096724E-5 中风险 0.61
CDM_260904-122705-387106-059321
2026-09-04T
12:27:54+0000
1.461 km
极远距离
2.332688E-6 低风险 0.42
CDM_260904-105405-387106-059321
2026-09-04T
10:54:06+0000
1.474 km
极远距离
2.268168E-6 低风险 0.42
CDM_260905-102906-059306-509321
2026-09-05T
10:29:23+0000
2.016 km
极远距离
1.840065E-6 低风险 0.4
CDM_260831-204005-270406-059321
2026-08-31T
20:40:09+0000
2.893 km
极远距离
1.232395E-6 低风险 0.37
CDM_260904-065905-387106-059321
2026-09-04T
06:59:37+0000
2.682 km
极远距离
5.94924E-7 极低风险 0.3